Flag for U.S.A. Weather past 2 weeks in Dayton, Ohio, U.S.A.

Now
47 °F

Clear.


Feels Like: 45 °F
Forecast: 50 / 77 °F
Wind: 5 mph from North

Location: Dayton / Wright-Patterson Air Force Base

Current Time: May 23, 2015 at 3:56:06 AM

Latest Report: May 23, 2015 at 2:58 AM


Visibility: 10 mi

Pressure: 30.31 "Hg

Humidity: 85%

Dew point: 43 °F

Location of DaytonLocation

Historic Weather in Dayton — Graph

°F

Dayton temperature yesterday

Maximum temperature yesterday: 75 °F (at 4:58 PM)
Minimum temperature yesterday: 43 °F (at 1:58 AM)
Average temperature yesterday: 59 °F

Past Weeks' High & Low Weather Summary

 TemperatureHumidityPressure
High86 °F (May 8, 3:58 PM)100% (May 11, 5:48 AM)30.44 "Hg (May 11, 5:48 AM)
Low42 °F (May 20, 6:58 AM)29% (May 22, 4:58 PM)29.86 "Hg (May 11, 5:58 PM)
Average65 °F70%30.11 "Hg
* Reported May 8 1:58 AM — May 23 1:58 AM, Dayton, Weather by CustomWeather, © 2015

Note: Actual official high and low records may vary slightly from our data, if they occured in-between our weather recording intervals... More about our weather records

Advertising

Dayton weather history for previous 24 hours

 ConditionsComfort  
Time TempWeatherWind HumidityBarometerVisibility
1:58 AM
Sat, May 23
49 °FClear.No wind85%30.31 "Hg10 mi
12:58 AM51 °FClear.2 mph78%30.31 "Hg10 mi
11:58 PM
Fri, May 22
53 °FClear.No wind73%30.29 "Hg10 mi
10:58 PM57 °FClear.1 mph70%30.27 "Hg10 mi
9:58 PM63 °FClear.2 mph51%30.26 "Hg10 mi
8:58 PM67 °FSunny.6 mph44%30.24 "Hg10 mi
7:58 PM70 °FSunny.9 mph37%30.22 "Hg10 mi
6:58 PM71 °FPassing clouds.9 mph36%30.20 "Hg10 mi
5:58 PM73 °FPassing clouds.13 mph33%30.19 "Hg10 mi
4:58 PM75 °FSunny.14 mph29%30.19 "Hg10 mi
3:58 PM75 °FSunny.15 mph35%30.17 "Hg10 mi
2:58 PM73 °FScattered clouds.10 mph40%30.19 "Hg10 mi
1:58 PM71 °FScattered clouds.12 mph43%30.19 "Hg10 mi
12:58 PM70 °FPassing clouds.14 mph46%30.20 "Hg10 mi
11:58 AM67 °FSunny.12 mph52%30.20 "Hg10 mi
10:58 AM62 °FSunny.9 mph60%30.20 "Hg10 mi
9:58 AM58 °FSunny.8 mph67%30.19 "Hg10 mi
8:58 AM53 °FSunny.8 mph75%30.19 "Hg10 mi
7:58 AM49 °FSunny.No wind85%30.19 "Hg10 mi
6:58 AM45 °FClear.5 mph87%30.16 "Hg10 mi
5:58 AM44 °FClear.5 mph89%30.13 "Hg10 mi
4:58 AM44 °FClear.2 mph87%30.12 "Hg10 mi
3:58 AM45 °FClear.5 mph85%30.11 "Hg10 mi
Weather by CustomWeather, © 2015

See weather overviewHow to use our weather pages